"Pseudo-MPEC" for P118cqk

Created 2020 Oct 20 16:07:32 UT using Find_Orb

Click here for an explanation of pseudo-MPECs

 
 Astrometry: 
     P118cqk  C2020 10 17j1WBMwGlO+Qq:Os+NT]EL@3+fNv-aAstrometryUredacted;W+fF51
     P118cqk  C2020 10 174NmeO`:[keO@^4H8rG?8[JY/fJ/CUO1)CP3]DnN/wnn1p`)=%vx)F51
     P118cqk  C2020 10 17U-^A1mgCOJ@%]#I+Q2(y:oACfF?e*NLho^53clickK2ORu3/x:1GF51
     P118cqk  C2020 10 17mk;b28O3Xn=`@_VXtC]a:39iF#h=S?1DZMWsVD+J;kE!WNy;59N)F51
     P118cqk ^C2020 10 18.37857300 58 45.418-30 45 36.32   ~AIKM 20.83GVNEOCP568
     P118cqk ^C2020 10 18.37951700 58 45.464-30 45 35.81   ~AIKM 20.86GVNEOCP568
     P118cqk ^C2020 10 18.38047800 58 45.508-30 45 35.35   ~AIKM 20.79GVNEOCP568
     P118cqk KC2020 10 19(N,JF##fhHYMLWXQr$PrY-XH6KP?T$%XK(\kK^kgq?mNQDF/Nri\474
     P118cqk KC2020 10 19rG*bM5[[m`9Cucn3U5*N\2%'X5U*XkWYPs,eUgX;'hereQ8V:`jI474
     P118cqk KC2020 10 19uNwXa#9slHXJfor:5]D.j/cWgY8rKI329\-gZ?(72][ZaOIDsWh\474
     P118cqk KC2020 10 20.26178601 00 38.37 -30 27 36.4    ~AK77 20.76GVNEOCPI52
     P118cqk KC2020 10 20.26833501 00 38.66 -30 27 31.9    ~AK77 20.31GVNEOCPI52
     P118cqk KC2020 10 20.27489001 00 39.00 -30 27 27.3    ~AK77 20.53GVNEOCPI52
     P118cqk KC2020 10 20.28143701 00 39.30 -30 27 22.5    ~AK77 20.71GVNEOCPI52
     P118cqk KC2020 10 20uF#.8vYa/kTESvYr$p+Z-@:nI=mvu[XJ[[2tWk5@7j@jfyDp!%Wu474
     P118cqk KC2020 10 20sLD7s@fTR664dEmy@*i`N/_kT/l3gh,mfCfa/t9y0'!N'ING-qa\474
     P118cqk KC2020 10 20[FM50sexplanationHQ;.D\RdC;^\;Idpwk?%lMwS/XS6G=cInYW474

Station data:
(474) Mount John Observatory, Lake Tekapo  (S43.987388 E170.464960)  New
   Zealand.  Observers A. C. Gilmore, P. M. Kilmartin. Measurer P. M.
   Kilmartin. 1.0-m f/7.7 reflector + CCD.
(568) Mauna Kea  (N19.826116 W155.472200)  US/Hawaii.
(F51) Pan-STARRS 1, Haleakala  (N20.707235 W156.255910)  US/Hawaii.
   Observers N. Primak, A. Schultz, S. Watters, J. Thiel, T. Goggia. Measurer
   PS1 Science Consortium. 1.8-m Ritchey-Chrétien + CCD.
(I52) Steward Observatory, Mt. Lemmon Station  (N32.442547 W110.788920)
   US/Arizona.  Observers T. A. Pruyne, B. M. Africano, E. J. Christensen, G.
   A. Farneth, D. C. Fuls, A. R. Gibbs, A. D. Grauer, H. Gröller, J. A.
   Johnson, R. A. Kowalski, S. M. Larson, G. J. Leonard, D. Rankin, R. L.
   Seaman, F. C. Shelly. 1.0-m reflector + CCD.

Orbital elements:  P118cqk
   Perihelion 2020 Nov 7.072830 +/- 0.348 TT =  1:44:52 (JD 2459160.572830)
Epoch 2020 Oct 20.0 TT = JDT 2459142.5   Earth MOID: 0.2988   Ma: 0.0374
M 355.84516460 +/- 0.07             (J2000 ecliptic)          AutoNEOCP
n   0.22989400 +/- 0.00643          Peri.  291.70255 +/- 0.7
a   2.63907024 +/- 0.0492           Node   104.90143 +/- 0.49
e   0.5263535 +/- 0.00817           Incl.    8.52140 +/- 0.06
P   4.29                   H 21.7   G  0.15   U  9.4  
q 1.24998633 +/- 0.00222    Q 4.02815416 +/- 0.099
From 17 observations 2020 Oct. 17-20; mean residual 0".28
Residuals in arcseconds: 
201017 F51  .02+  .07-    201018 568  .18+  .03+    201020 I52  .13-  .15+    
201017 F51  .08-  .03+    201019 474  .23-  .09-    201020 I52  .53-  .75+    
201017 F51  .11-  .11-    201019 474  .10-  .11+    201020 474  .12-  .24-    
201017 F51  .13-  .17+    201019 474  .03+  .39-    201020 474  .08+  .04-    
201018 568  .17+  .02+    201020 I52  .27+  .60-    201020 474  .67+  .44+    
201018 568  .20+  .06+    201020 I52  .25-  .26-    

Ephemerides (geocentric):
Date (UTC) HH   RA              Dec         delta   r     elong  mag " sig PA
---- -- -- --  -------------   -----------  ------ ------ -----  --- ---- ---
2020 10 20 16  01 01 03.157   -30 22 49.39  .33580 1.2649 137.9 21.2 .130 161
2020 10 20 17  01 01 05.730   -30 22 21.70  .33578 1.2649 137.9 21.2 .137 160
2020 10 20 18  01 01 08.306   -30 21 53.89  .33576 1.2648 137.9 21.2 .144 159
2020 10 20 19  01 01 10.884   -30 21 25.97  .33574 1.2647 137.9 21.2 .151 158
2020 10 20 20  01 01 13.464   -30 20 57.94  .33572 1.2647 137.8 21.2 .159 157
2020 10 20 21  01 01 16.047   -30 20 29.79  .33570 1.2646 137.8 21.2 .167 156
2020 10 20 22  01 01 18.631   -30 20 01.53  .33568 1.2645 137.8 21.2 .175 155
2020 10 20 23  01 01 21.218   -30 19 33.16  .33566 1.2645 137.8 21.2 .184 154
2020 10 21 00  01 01 23.808   -30 19 04.68  .33564 1.2644 137.8 21.2 .192 153
2020 10 21 01  01 01 26.399   -30 18 36.08  .33562 1.2643 137.8 21.2 .201 152
2020 10 21 02  01 01 28.993   -30 18 07.37  .33560 1.2642 137.8 21.2 .210 152
2020 10 21 03  01 01 31.589   -30 17 38.54  .33558 1.2642 137.8 21.2 .220 151
2020 10 21 04  01 01 34.187   -30 17 09.60  .33557 1.2641 137.7 21.2 .229 150
2020 10 21 05  01 01 36.788   -30 16 40.55  .33555 1.2640 137.7 21.2 .239 150
2020 10 21 06  01 01 39.391   -30 16 11.39  .33553 1.2640 137.7 21.2 .249 149
2020 10 21 07  01 01 41.996   -30 15 42.11  .33551 1.2639 137.7 21.2 .259 149
2020 10 21 08  01 01 44.603   -30 15 12.72  .33549 1.2638 137.7 21.2 .270 148
2020 10 21 09  01 01 47.213   -30 14 43.22  .33547 1.2638 137.7 21.2 .280 148
2020 10 21 10  01 01 49.825   -30 14 13.60  .33545 1.2637 137.7 21.2 .291 147
2020 10 21 11  01 01 52.439   -30 13 43.87  .33543 1.2636 137.6 21.2 .302 147
2020 10 21 12  01 01 55.055   -30 13 14.03  .33542 1.2636 137.6 21.2 .313 147
2020 10 21 13  01 01 57.674   -30 12 44.08  .33540 1.2635 137.6 21.2 .325 146
2020 10 21 14  01 02 00.295   -30 12 14.01  .33538 1.2634 137.6 21.2 .336 146
2020 10 21 15  01 02 02.918   -30 11 43.83  .33536 1.2634 137.6 21.2 .348 146
2020 10 21 16  01 02 05.544   -30 11 13.53  .33534 1.2633 137.6 21.2 .360 145
2020 10 21 17  01 02 08.172   -30 10 43.12  .33533 1.2632 137.6 21.2 .372 145
2020 10 21 18  01 02 10.802   -30 10 12.60  .33531 1.2632 137.6 21.2 .385 145
2020 10 21 19  01 02 13.434   -30 09 41.97  .33529 1.2631 137.5 21.2 .397 144
2020 10 21 20  01 02 16.069   -30 09 11.22  .33528 1.2630 137.5 21.2 .410 144
2020 10 21 21  01 02 18.706   -30 08 40.36  .33526 1.2630 137.5 21.2 .423 144
2020 10 21 22  01 02 21.345   -30 08 09.39  .33524 1.2629 137.5 21.2 .436 143
2020 10 21 23  01 02 23.987   -30 07 38.31  .33522 1.2628 137.5 21.2 .450 143
2020 10 22 00  01 02 26.631   -30 07 07.11  .33521 1.2628 137.5 21.2 .463 143
2020 10 22 01  01 02 29.277   -30 06 35.80  .33519 1.2627 137.5 21.2 .477 143
2020 10 22 02  01 02 31.926   -30 06 04.38  .33518 1.2626 137.5 21.2 .491 142
2020 10 22 03  01 02 34.576   -30 05 32.84  .33516 1.2626 137.4 21.2 .505 142
2020 10 22 04  01 02 37.230   -30 05 01.19  .33514 1.2625 137.4 21.2 .519 142
2020 10 22 05  01 02 39.885   -30 04 29.43  .33513 1.2624 137.4 21.2 .533 142
2020 10 22 06  01 02 42.543   -30 03 57.55  .33511 1.2624 137.4 21.2 .548 142
2020 10 22 07  01 02 45.203   -30 03 25.57  .33509 1.2623 137.4 21.2 .563 141
2020 10 22 08  01 02 47.865   -30 02 53.47  .33508 1.2622 137.4 21.2 .578 141
2020 10 22 09  01 02 50.530   -30 02 21.25  .33506 1.2622 137.4 21.2 .593 141
2020 10 22 10  01 02 53.197   -30 01 48.93  .33505 1.2621 137.3 21.2 .608 141
2020 10 22 11  01 02 55.866   -30 01 16.49  .33503 1.2620 137.3 21.2 .624 141
2020 10 22 12  01 02 58.538   -30 00 43.94  .33502 1.2620 137.3 21.2 .640 140
2020 10 22 13  01 03 01.212   -30 00 11.28  .33500 1.2619 137.3 21.2 .655 140
2020 10 22 14  01 03 03.888   -29 59 38.50  .33499 1.2619 137.3 21.2 .671 140
2020 10 22 15  01 03 06.567   -29 59 05.61  .33497 1.2618 137.3 21.2 .688 140